Content
SEND FEEDBACK

Daily
Averages
Monthly
Summary
United States of America

POTTS JUNCTION, GUAM


Home > North America > United States > Guam
Elevation: 110 meters     Latitude: 13 33N     Longitude: 144 50E

WEATHER
 
SELECT A DAY
Number of Records: 209,165;   Date Range: 1/1/95 - 8/30/14
 
SHARE

PRINT THIS DATA

[ ← Previous Day ]
WEATHER ALMANAC - 17 MARCH, 2013
[ Next Day → ]
[ °F ]   °C
Weather ElementAverageHighLow
Temperature28.2 °C31.7 °C (12:54 pm)25 °C (3:54 am)
Dewpoint21.3 °C23.3 °C (10:54 pm)20 °C (9:54 am)
Humidity67.1 %84 % (10:54 pm)50 % (2:54 pm)
Barometer1012.5 hPa1013.9 hPa (8:54 am)1010.5 hPa (3:54 pm)
Wind Speed20.1 km/h33.3 km/h (12:54 pm)
Wind Gust42.6 km/h (12:54 pm)
Weather ElementAverage
Visibility16.1 km
Wind DirectionNE (46.7 °)

Weather ElementTotal
Precipitation---
Cooling Degree Days10.1 (Base 18.3)
Growing Degree Days18.4 (Base 10)
Averaged from 24 records on 17 March, 2013
WEATHER CONDITIONS BREAKOUT
WIND DIRECTION BREAKOUT
WEATHER BY HOUR - 17 MARCH, 2013
[ °F ]   °C
Local TimeTemperatureDewpointHumidityBarometerVisibilityWind DirectionWind SpeedGust SpeedPrecipitationEventsConditions
1:54 AM26.1 °C21.7 °C77 %1012.5 hPa16.1 kmNE (50°)11.1 km/hClear
2:54 AM26.1 °C21.7 °C77 %1011.9 hPa16.1 kmENE (60°)13 km/hClear
3:54 AM25 °C21.7 °C82 %1011.9 hPa16.1 kmNE (40°)7.4 km/hClear
4:54 AM25 °C21.7 °C82 %1012.2 hPa16.1 kmNorth (10°)5.6 km/hClear
5:54 AM25 °C21.1 °C79 %1012.5 hPa16.1 kmNE (40°)13 km/hPartly Cloudy
6:54 AM26.1 °C21.7 °C77 %1012.9 hPa16.1 kmNE (40°)14.8 km/hClear
7:54 AM27.8 °C21.7 °C69 %1013.5 hPa16.1 kmNE (50°)16.7 km/hClear
8:54 AM29.4 °C20.6 °C59 %1013.9 hPa16.1 kmNE (50°)24.1 km/hPartly Cloudy
9:54 AM30.6 °C20 °C53 %1013.9 hPa16.1 kmNE (50°)24.1 km/hPartly Cloudy
10:54 AM30 °C20.6 °C57 %1013.5 hPa16.1 kmNNE (30°)25.9 km/hScattered Clouds
11:54 AM30 °C21.7 °C61 %1012.9 hPa16.1 kmNE (40°)27.8 km/hMostly Cloudy
12:08 PM31 °C21 °C55 %1013.2 hPa16.1 kmNE (50°)27.8 km/hMostly Cloudy
12:54 PM31.7 °C20.6 °C52 %1011.9 hPa16.1 kmNE (40°)33.3 km/h42.6 km/hPartly Cloudy
1:54 PM31.1 °C20 °C51 %1011.2 hPa16.1 kmNE (50°)31.5 km/hScattered Clouds
2:54 PM31.7 °C20 °C50 %1010.8 hPa16.1 kmNE (50°)29.6 km/hScattered Clouds
3:54 PM30.6 °C20.6 °C55 %1010.5 hPa16.1 kmNE (40°)31.5 km/hScattered Clouds
4:54 PM29.4 °C20.6 °C59 %1011.2 hPa16.1 kmENE (60°)24.1 km/h37 km/hScattered Clouds
5:54 PM28.3 °C21.1 °C65 %1011.5 hPa16.1 kmNE (50°)24.1 km/hPartly Cloudy
6:54 PM27.2 °C22.2 °C74 %1012.2 hPa16.1 kmNE (50°)18.5 km/hOvercast
7:54 PM27.2 °C22.2 °C74 %1012.5 hPa16.1 kmENE (60°)18.5 km/hPartly Cloudy
8:54 PM27.2 °C22.2 °C74 %1012.9 hPa16.1 kmENE (60°)14.8 km/hClear
9:54 PM27.2 °C21.1 °C69 %1012.9 hPa16.1 kmNE (50°)18.5 km/hPartly Cloudy
10:54 PM26.1 °C23.3 °C84 %1012.9 hPa16.1 kmNE (50°)13 km/h0 mmMostly Cloudy
11:54 PM26.7 °C22.2 °C76 %1012.5 hPa16.1 kmNE (50°)14.8 km/hClear
Hourly data recorded from PGUM, located 0 kilometers away from Potts Junction, Guam







STORIES FROM OUR PARTNERS